Date String (YYYY-MM-DD hh:mm:ss) UTC,Instrument flags,Ambient pressure (hPa),Sample flow (lpm),Bypass flow (lpm),Sample temperature (°C),Ambient temperature (°C),ASC tube jacket temperature (°C),LED temperature (°C),Box temperature (°C),Sample RH (%),Span deviation,Mass concentration (μg/m³),Mass concentration (μg/m³),Mass concentration (μg/m³)
DateTimeUTC,F1_M11,P_M11,Q1_M11,Q2_M11,T1_M11,T2_M11,T3_M11,T4_M11,T5_M11,U1_M11,ZSPAN_M11,X0_M11,X2_M11,X1_M11
2022-01-26 21:00:00,,0823.0,5.00,0.00,24.1,23.5,00.0,32.9,26.0,07.5,0000.0,0008.15,0005.45,0005.14
2022-01-26 21:01:00,,0822.9,4.99,0.00,24.1,23.5,00.0,32.9,26.0,07.6,0000.0,0008.01,0005.35,0005.04
2022-01-26 21:02:00,,0822.9,5.00,0.00,24.1,23.5,00.0,32.9,26.0,07.7,0000.0,0008.42,0005.25,0004.94
2022-01-26 21:03:00,,0823.0,5.00,0.00,24.2,23.5,00.0,32.9,26.1,07.7,0000.0,0008.44,0005.14,0004.84
2022-01-26 21:04:00,,0823.0,4.99,0.00,24.2,23.6,00.0,33.0,26.1,07.6,0000.0,0008.87,0005.03,0004.76
2022-01-26 21:05:00,,0823.0,4.99,0.00,24.2,23.6,00.0,33.0,26.1,07.7,0000.0,0008.77,0004.95,0004.68
2022-01-26 21:06:00,,0823.0,5.02,0.00,24.3,23.6,00.0,33.0,26.2,07.7,0000.0,0008.71,0004.91,0004.62
2022-01-26 21:07:00,,0822.9,4.99,0.00,24.3,23.6,00.0,33.0,26.2,08.2,0000.0,0008.65,0004.87,0004.59
2022-01-26 21:08:00,,0822.9,4.99,0.00,24.3,23.7,00.0,33.1,26.2,08.2,0000.0,0008.78,0004.84,0004.56
2022-01-26 21:09:00,,0822.9,5.01,0.00,24.3,23.7,00.0,33.1,26.3,08.1,0000.0,0008.97,0004.82,0004.55
2022-01-26 21:10:00,,0823.0,4.98,0.00,24.3,23.7,00.0,33.1,26.3,08.2,0000.0,0008.87,0004.80,0004.56
2022-01-26 21:11:00,,0823.1,4.99,0.00,24.4,23.7,00.0,33.2,26.3,08.0,0000.0,0008.98,0004.85,0004.61
2022-01-26 21:12:00,,0823.0,5.01,0.00,24.4,23.7,00.0,33.2,26.3,07.9,0000.0,0009.09,0004.92,0004.66
2022-01-26 21:13:00,,0823.1,5.01,0.00,24.4,23.7,00.0,33.2,26.3,08.0,0000.0,0008.64,0004.96,0004.71
2022-01-26 21:14:00,,0823.1,4.99,0.00,24.4,23.7,00.0,33.2,26.3,07.8,0000.0,0008.50,0005.01,0004.77
2022-01-26 21:15:00,,0823.1,5.00,0.00,24.4,23.8,00.0,33.2,26.3,07.7,0000.0,0008.09,0005.08,0004.83
2022-01-26 21:16:00,,0823.1,5.01,0.00,24.4,23.8,00.0,33.2,26.3,08.0,0000.0,0008.12,0005.12,0004.88
2022-01-26 21:17:00,,0823.1,4.99,0.00,24.5,23.8,00.0,33.3,26.4,07.9,0000.0,0008.08,0005.14,0004.91
2022-01-26 21:18:00,,0823.1,5.01,0.00,24.5,23.8,00.0,33.3,26.4,08.1,0000.0,0008.09,0005.13,0004.91
2022-01-26 21:19:00,,0823.2,4.99,0.00,24.5,23.8,00.0,33.3,26.4,08.0,0000.0,0007.87,0005.12,0004.89
2022-01-26 21:20:00,,0823.2,5.01,0.00,24.5,23.8,00.0,33.3,26.5,08.0,0000.0,0007.99,0005.09,0004.87
2022-01-26 21:21:00,,0823.2,4.99,0.00,24.6,23.9,00.0,33.3,26.5,08.0,0000.0,0008.21,0005.10,0004.86
2022-01-26 21:22:00,,0823.2,5.00,0.00,24.6,23.9,00.0,33.4,26.5,07.9,0000.0,0008.23,0005.08,0004.85
2022-01-26 21:23:00,,0823.2,5.01,0.00,24.6,23.9,00.0,33.4,26.5,07.7,0000.0,0008.40,0005.05,0004.83
2022-01-26 21:24:00,,0823.3,4.99,0.00,24.6,23.9,00.0,33.4,26.5,07.7,0000.0,0008.40,0005.02,0004.79
2022-01-26 21:25:00,,0823.3,5.00,0.00,24.6,23.9,00.0,33.4,26.6,07.7,0000.0,0008.43,0004.99,0004.74
2022-01-26 21:26:00,,0823.3,5.01,0.00,24.7,23.9,00.0,33.4,26.6,07.8,0000.0,0008.37,0004.93,0004.69
2022-01-26 21:27:00,,0823.4,5.01,0.00,24.7,24.0,00.0,33.5,26.6,07.9,0000.0,0008.44,0004.89,0004.65
2022-01-26 21:28:00,,0823.4,4.99,0.00,24.7,24.0,00.0,33.5,26.6,07.8,0000.0,0008.77,0004.86,0004.61
2022-01-26 21:29:00,,0823.4,5.01,0.00,24.7,24.0,00.0,33.5,26.6,07.8,0000.0,0008.82,0004.87,0004.60
2022-01-26 21:30:00,,0823.4,5.00,0.00,24.7,24.0,00.0,33.5,26.6,07.8,0000.0,0008.80,0004.86,0004.59
2022-01-26 21:31:00,,0823.4,4.99,0.00,24.7,24.0,00.0,33.5,26.6,07.8,0000.0,0008.39,0004.87,0004.60
2022-01-26 21:32:00,,0823.3,5.00,0.00,24.7,24.1,00.0,33.5,26.6,08.0,0000.0,0008.20,0004.85,0004.59
2022-01-26 21:33:00,,0823.3,5.01,0.00,24.7,24.1,00.0,33.6,26.7,08.0,0000.0,0008.08,0004.84,0004.58
2022-01-26 21:34:00,,0823.3,4.99,0.00,24.8,24.1,00.0,33.6,26.7,08.0,0000.0,0007.83,0004.86,0004.59
2022-01-26 21:35:00,,0823.4,5.00,0.00,24.8,24.1,00.0,33.6,26.7,08.1,0000.0,0007.80,0004.87,0004.61
2022-01-26 21:36:00,,0823.4,5.02,0.00,24.8,24.1,00.0,33.6,26.7,08.1,0000.0,0007.77,0004.89,0004.63
2022-01-26 21:37:00,,0823.4,5.00,0.00,24.8,24.1,00.0,33.6,26.7,07.8,0000.0,0007.76,0004.90,0004.64
2022-01-26 21:38:00,,0823.3,4.99,0.00,24.8,24.1,00.0,33.6,26.7,08.0,0000.0,0007.65,0004.89,0004.66
2022-01-26 21:39:00,,0823.3,5.01,0.00,24.8,24.1,00.0,33.7,26.7,07.9,0000.0,0007.96,0004.89,0004.68
2022-01-26 21:40:00,,0823.3,4.99,0.00,24.8,24.2,00.0,33.7,26.7,07.9,0000.0,0007.90,0004.87,0004.68
2022-01-26 21:41:00,,0823.3,5.01,0.00,24.9,24.2,00.0,33.7,26.7,07.4,0000.0,0007.86,0004.84,0004.65
2022-01-26 21:42:00,,0823.4,5.00,0.00,24.9,24.2,00.0,33.7,26.8,07.2,0000.0,0007.92,0004.81,0004.62
2022-01-26 21:43:00,,0823.5,5.01,0.00,24.9,24.2,00.0,33.7,26.8,07.1,0000.0,0008.02,0004.79,0004.60
2022-01-26 21:44:00,,0823.6,4.99,0.00,24.9,24.2,00.0,33.7,26.9,07.2,0000.0,0007.98,0004.75,0004.56
2022-01-26 21:45:00,,0823.6,5.00,0.00,24.9,24.2,00.0,33.7,26.9,07.1,0000.0,0007.88,0004.70,0004.52
2022-01-26 21:46:00,,0823.6,5.01,0.00,24.9,24.2,00.0,33.8,26.9,07.2,0000.0,0008.32,0004.66,0004.50
2022-01-26 21:47:00,,0823.7,4.99,0.00,25.0,24.2,00.0,33.8,26.9,07.2,0000.0,0008.41,0004.64,0004.49
2022-01-26 21:48:00,,0823.7,4.99,0.00,25.0,24.2,00.0,33.8,26.9,07.4,0000.0,0008.74,0004.67,0004.51
2022-01-26 21:49:00,,0823.7,5.00,0.00,25.0,24.2,00.0,33.8,26.9,07.5,0000.0,0008.74,0004.71,0004.53
2022-01-26 21:50:00,,0823.7,5.01,0.00,25.0,24.2,00.0,33.8,26.9,07.8,0000.0,0008.19,0004.75,0004.55
2022-01-26 21:51:00,,0823.7,5.00,0.00,25.0,24.2,00.0,33.8,26.9,07.7,0000.0,0008.22,0004.78,0004.57
2022-01-26 21:52:00,,0823.7,4.98,0.00,25.0,24.2,00.0,33.8,26.9,07.8,0000.0,0008.29,0004.83,0004.62
2022-01-26 21:53:00,,0823.7,5.01,0.00,25.0,24.2,00.0,33.8,26.9,07.9,0000.0,0008.30,0004.88,0004.68
2022-01-26 21:54:00,,0823.8,4.99,0.00,25.0,24.3,00.0,33.8,26.9,07.6,0000.0,0008.18,0004.91,0004.71
2022-01-26 21:55:00,,0823.8,5.00,0.00,25.0,24.3,00.0,33.9,26.9,07.4,0000.0,0008.24,0004.95,0004.75
2022-01-26 21:56:00,,0823.8,5.01,0.00,25.0,24.3,00.0,33.9,26.9,07.4,0000.0,0008.38,0004.97,0004.77
2022-01-26 21:57:00,,0823.8,5.00,0.00,25.0,24.3,00.0,33.9,26.9,07.4,0000.0,0008.07,0004.99,0004.77
2022-01-26 21:58:00,,0823.8,4.99,0.00,25.0,24.3,00.0,33.9,27.0,07.5,0000.0,0007.90,0005.01,0004.76
2022-01-26 21:59:00,,0823.8,5.00,0.00,25.1,24.3,00.0,33.9,27.0,07.5,0000.0,0007.70,0005.01,0004.74
